RH
40 40 40 41 41 40 40 40 40 40 42 43 43 45 45 44 42 40 38 38 36 36 34 31 28 24 20 34 39 43 68 65 90 87 79 72 74 72 73 72 64 21 18
38 40 41 42 44 44 44 45 45 45 45 45 44 43 44 45 47 51 54 54 50 45 42 39 38 35 29 31 51 59 68 80 82 94 93 84 80 79 77 72 77 66 21
36 36 39 43 44 45 47 48 48 48 48 48 49 49 49 49 47 46 49 55 56 54 52 48 44 42 40 36 43 68 72 65 90 88 89 95 88 81 82 85 88 79 68
44 40 40 45 49 49 51 54 55 56 57 57 57 56 55 55 55 53 51 50 52 56 56 56 54 51 46 43 40 36 92 85 57 78 90 100 93 90 84 84 80 88 89
52 47 43 44 49 50 51 53 55 57 55 56 58 58 57 56 56 56 54 52 51 51 51 51 50 50 51 50 46 44 41 87 88 69 68 85 98 95 95 81 84 86 89
67 56 50 48 51 51 51 55 56 56 56 56 55 53 57 59 58 57 56 56 56 55 54 55 54 52 51 50 48 48 46 44 45 62 76 80 79 92 98 100 98 96 91
74 73 58 53 51 49 48 51 63 65 64 72 74 65 60 59 59 60 60 59 57 57 59 56 54 56 53 49 50 49 47 46 46 44 36 73 91 83 82 91 99 100 96
73 68 62 57 53 52 50 48 48 56 73 84 83 84 78 60 64 61 64 66 63 61 60 59 56 54 56 54 50 47 46 43 42 47 46 42 84 100 97 84 83 96 99
70 63 57 57 58 60 61 60 56 55 59 80 99 98 93 72 74 66 71 66 67 70 68 65 54 53 53 50 47 48 49 47 40 37 44 47 45 48 78 92 90 89 92
52 46 45 47 48 51 51 53 60 64 78 84 88 96 92 84 77 75 68 77 67 62 69 66 57 51 47 43 42 40 42 51 52 43 37 40 46 46 44 42 44 54 78
49 42 40 36 34 34 35 39 52 59 70 87 99 100 95 91 86 79 82 85 77 74 70 63 55 56 49 45 45 43 38 38 52 59 50 38 37 42 46 44 42 33 28
30 28 23 19 18 16 16 18 23 32 49 63 79 100 100 100 100 98 83 86 86 78 73 72 61 56 58 56 52 50 44 42 44 59 59 51 41 36 39 44 42 40 34
29 26 18 12 10 10 10 15 29 36 45 61 80 94 89 98 100 99 97 100 98 89 90 83 78 74 64 50 52 49 43 45 45 54 57 54 47 39 36 37 44 40 38
32 30 26 21 17 20 33 48 63 76 83 98 99 100 99 98 97 96 96 97 96 97 96 94 91 82 73 65 55 49 47 48 47 52 52 52 47 42 37 34 31 44 41
22 21 19 17 23 46 76 82 85 100 98 97 97 97 96 96 96 96 96 96 96 87 85 82 76 72 67 61 53 49 48 51 55 52 52 52 47 41 38 34 32 28 45
17 15 31 54 76 93 97 100 98 98 97 95 95 95 94 94 94 94 89 86 82 66 55 43 36 38 42 45 49 52 53 53 53 53 51 48 43 37 36 34 31 30 28
30 57 89 98 95 93 97 96 98 96 96 96 95 95 96 95 83 61 39 19 12 10 10 9 8 8 8 8 9 10 13 18 23 25 22 22 24 28 28 31 32 30 29
75 95 94 99 98 97 96 98 95 96 96 96 96 96 80 44 21 13 11 10 10 11 16 14 8 8 7 6 6 6 4 4 4 5 6 7 9 12 17 21 26 29 29
99 98 98 97 96 94 95 96 96 90 84 62 37 20 14 12 11 10 10 10 11 13 19 23 18 20 20 18 16 16 14 11 11 9 7 7 6 6 9 13 18 22 26
90 94 97 99 99 98 95 80 55 35 18 15 14 14 14 13 12 11 11 13 17 23 29 32 30 28 29 27 26 24 22 22 17 17 13 11 10 7 5 7 11 16 20
92 91 91 87 67 36 27 23 19 17 18 20 21 20 18 18 20 26 29 28 30 32 33 34 37 40 47 55 56 56 53 53 44 32 22 16 16 13 7 5 6 10 13
94 90 75 42 27 25 24 23 24 26 28 26 18 15 16 23 34 29 26 32 48 67 74 80 80 76 75 79 78 75 74 71 64 65 57 45 32 17 12 9 5 6 9
63 40 30 28 28 28 30 31 32 36 36 27 18 24 36 34 23 38 68 81 86 90 93 93 86 80 80 82 81 76 76 77 76 79 74 58 59 42 25 12 10 8 7
46 32 31 33 31 31 37 43 45 46 40 30 34 42 29 26 74 91 90 89 90 87 88 93 92 88 90 94 94 90 86 85 82 81 82 71 81 70 64 41 23 12 9
32 32 29 26 25 26 32 43 51 47 39 41 45 31 44 88 98 99 98 90 85 89 95 92 90 92 95 96 97 99 94 97 92 89 87 88 83 79 81 70 59 40 19
30 28 26 25 32 41 60 66 62 55 51 49 41 35 96 98 98 100 98 94 92 94 93 91 90 97 100 100 97 98 98 98 98 94 88 95 96 91 83 80 79 71 51
Wind_Speed
22 23 24 25 26 27 29 30 30 31 32 32 32 32 32 32 32 31 30 29 30 30 29 29 28 28 29 30 33 35 34 32 30 28 29 28 29 29 29 27 26 24 23
21 23 24 25 27 28 29 30 31 32 32 32 33 35 35 35 35 35 34 34 33 33 33 32 30 29 28 30 31 35 40 39 36 35 33 31 31 31 32 31 30 30 28
23 23 24 25 26 28 30 31 32 32 32 32 32 33 34 35 36 37 37 37 36 36 36 34 33 32 31 29 31 33 39 45 42 41 37 35 34 35 33 33 33 32 33
25 27 27 27 28 28 29 30 31 32 31 32 32 33 34 35 36 37 37 38 39 38 38 38 36 34 34 34 31 32 35 41 46 45 44 39 39 39 38 39 38 35 35
26 28 30 30 30 29 29 30 31 33 33 34 35 34 34 34 35 36 36 37 38 39 40 39 39 40 38 37 37 35 33 39 43 47 48 47 46 44 44 47 48 41 39
30 33 33 33 34 34 32 32 33 33 34 34 36 36 35 34 35 36 36 36 36 37 39 40 39 40 42 41 39 39 38 39 43 44 49 51 52 50 47 47 47 41 55
33 38 35 33 36 38 37 38 37 37 38 36 38 37 37 36 36 35 36 35 36 37 38 40 41 40 41 42 42 42 42 43 43 42 44 48 51 53 58 57 52 52 59
39 42 40 39 37 38 40 40 42 44 43 40 42 41 45 44 41 36 36 35 36 37 38 37 38 40 42 43 43 43 44 44 44 44 46 46 50 49 48 57 62 59 57
40 41 41 41 42 44 45 44 44 46 49 47 43 44 48 50 45 44 43 41 38 38 37 35 36 38 40 40 41 44 45 45 45 45 45 49 50 53 53 53 51 49 60
42 44 46 44 45 46 47 48 48 47 48 51 50 51 53 52 52 50 48 49 49 45 41 40 37 36 37 37 38 40 43 44 47 47 46 45 49 52 52 55 56 52 51
48 49 46 45 46 47 49 51 51 52 50 50 53 54 56 55 54 54 56 53 52 50 45 43 42 40 41 43 41 40 42 46 47 49 49 49 46 47 52 53 54 52 50
43 44 47 48 49 50 50 52 54 56 56 53 52 55 57 56 61 59 61 63 59 55 54 51 50 49 48 46 43 45 46 47 49 49 49 50 51 48 46 51 52 51 50
48 50 51 51 50 51 52 51 49 49 50 49 48 49 53 56 64 67 65 67 65 63 63 60 55 57 55 51 50 50 51 50 50 51 50 49 50 52 50 48 49 47 48
52 55 56 55 55 53 50 44 40 38 38 35 38 44 50 50 49 43 41 45 47 49 49 48 46 48 50 53 55 53 55 53 51 52 52 51 50 51 53 51 49 48 46
54 56 57 56 53 46 39 34 30 25 31 36 37 29 27 31 38 39 34 34 37 41 41 41 44 46 49 54 54 56 59 58 54 54 52 52 51 51 52 54 52 49 47
57 57 51 44 37 31 32 32 30 33 34 36 38 40 42 41 35 34 35 37 41 44 49 45 46 46 47 49 51 53 56 57 56 52 52 51 52 51 51 53 55 53 51
50 41 32 28 29 32 33 30 31 32 33 33 33 33 34 36 37 37 37 39 40 42 47 47 47 49 48 50 51 51 52 54 56 55 51 49 50 52 52 53 55 56 53
35 30 27 32 33 32 33 32 32 33 33 33 33 35 37 39 40 40 40 40 42 42 44 47 46 47 47 45 47 47 47 48 50 53 49 47 47 50 52 52 54 56 56
27 26 31 33 34 34 33 34 33 32 32 32 34 36 37 38 39 39 40 41 42 44 45 48 47 46 46 45 45 46 47 47 45 46 48 47 47 48 51 52 54 57 56
28 27 29 32 34 35 35 30 29 30 32 33 34 35 36 38 39 40 40 41 41 43 44 46 46 45 47 46 47 46 45 46 45 44 45 45 45 46 50 52 54 57 56
31 33 32 32 31 29 29 30 31 33 35 37 37 37 37 37 37 38 40 40 40 41 43 46 47 45 46 46 46 44 45 43 43 44 44 43 43 43 46 49 52 55 55
34 34 32 31 31 31 32 33 35 37 37 38 38 36 36 36 36 37 37 38 39 40 40 39 38 37 37 36 36 37 38 37 37 38 41 40 42 43 44 47 50 52 54
34 33 33 32 31 32 34 35 36 37 38 36 36 36 35 35 34 34 34 33 31 31 34 35 36 35 35 33 35 37 38 37 35 31 34 37 37 40 41 44 47 49 51
33 33 32 32 33 34 36 36 36 36 36 35 36 35 35 32 31 29 29 30 31 31 32 33 35 35 34 33 34 33 35 37 37 34 31 34 31 35 36 40 43 46 48
33 32 33 35 37 37 37 37 37 36 35 35 35 34 31 28 25 26 28 30 32 34 35 34 34 32 31 30 28 29 31 33 34 32 29 34 31 31 31 35 38 42 46
34 36 36 36 36 37 35 34 35 36 36 35 33 28 25 23 24 25 29 33 35 31 28 25 25 27 27 27 24 25 24 28 27 28 24 30 30 28 29 31 33 36 41
Wind_Direction
314 308 302 296 290 285 283 281 279 278 277 275 274 273 273 274 275 276 276 273 273 273 271 269 267 263 260 258 251 242 240 238 238 241 241 240 240 240 240 243 245 242 241
313 308 304 302 299 295 290 287 285 282 279 277 275 275 274 273 273 275 276 275 273 271 272 272 272 271 264 256 254 243 240 237 237 235 235 238 240 240 242 243 245 249 244
317 309 303 299 297 295 296 294 291 288 285 282 279 277 276 274 272 271 271 274 275 275 274 273 271 268 267 264 257 249 241 239 240 240 238 237 238 240 243 242 245 248 246
319 314 309 303 298 295 292 291 290 289 287 283 280 277 275 275 273 271 270 269 271 274 275 274 274 271 267 265 265 263 251 243 243 243 242 239 237 240 242 248 247 245 246
327 321 313 306 299 296 295 292 290 288 287 286 285 282 278 275 274 273 271 269 270 271 272 271 272 272 270 266 264 263 261 249 248 247 246 242 236 237 239 242 249 248 244
318 318 313 307 304 301 298 294 291 289 287 286 285 283 282 280 276 275 274 272 271 271 273 275 273 271 272 271 267 263 261 255 254 253 251 248 245 243 240 240 237 242 249
303 311 307 301 296 295 295 293 289 288 287 285 282 281 280 277 275 273 272 271 269 267 269 275 276 275 272 270 269 267 263 260 258 257 256 252 248 247 243 247 239 240 241
309 309 308 303 296 290 286 285 285 283 280 280 282 284 283 280 276 275 271 271 269 268 266 269 271 273 273 275 274 272 269 267 263 257 254 252 249 249 248 246 250 253 253
305 304 303 300 297 293 291 289 284 280 279 275 272 275 277 279 283 278 276 276 271 273 272 273 272 267 268 274 278 275 272 269 268 266 260 255 253 251 253 252 251 254 255
304 304 300 296 294 293 291 290 287 281 274 272 271 268 268 271 277 279 280 274 274 271 273 278 269 267 264 269 276 277 276 271 266 265 266 261 254 255 253 254 256 256 254
301 300 298 296 292 289 288 287 285 283 277 271 269 266 271 271 272 274 273 276 276 278 270 276 267 269 265 267 269 275 281 279 273 266 263 264 263 255 254 254 254 253 252
302 302 298 295 294 291 286 282 279 277 276 273 270 267 267 270 271 271 273 270 272 274 271 271 266 267 272 269 270 273 277 277 273 268 265 262 262 262 256 252 253 253 250
306 302 301 300 296 293 289 285 281 278 275 272 269 266 268 269 266 262 264 267 266 265 271 274 271 265 267 266 270 273 276 274 269 267 266 264 260 259 259 255 251 252 251
303 301 300 299 297 294 291 287 283 280 279 282 277 271 257 255 254 257 262 264 264 267 267 267 265 264 263 265 270 270 273 270 265 263 265 265 262 259 258 258 255 249 245
301 299 296 294 293 291 290 291 286 286 280 280 265 258 270 263 263 267 270 269 272 271 268 270 266 263 263 264 266 267 267 267 266 264 262 261 261 259 257 257 257 254 246
301 298 297 296 298 295 294 294 286 278 277 281 279 273 276 290 291 289 286 286 288 288 285 282 279 273 268 266 265 264 263 265 266 264 262 260 259 259 256 255 256 254 252
304 305 308 309 310 307 287 291 289 289 290 291 293 295 296 298 297 294 290 287 284 281 279 277 276 276 275 273 271 269 266 265 265 265 264 260 257 256 255 253 254 254 253
311 315 315 305 287 280 303 299 294 291 288 290 292 293 292 292 291 291 289 287 284 281 280 281 279 278 277 275 274 273 270 266 265 265 264 261 256 252 251 250 250 251 251
311 309 299 289 291 296 295 291 289 290 293 293 292 291 291 290 289 287 285 282 281 280 279 279 280 278 278 277 274 272 271 269 267 265 263 260 256 251 249 246 246 248 249
315 311 299 292 289 291 297 305 303 298 296 296 296 295 294 291 289 286 282 280 279 278 278 278 278 278 278 277 276 274 272 270 266 264 261 258 255 250 247 245 244 245 245
310 307 307 309 311 310 306 303 302 301 302 301 300 299 295 291 287 286 284 283 281 280 279 278 278 278 277 277 276 274 271 269 265 263 260 257 256 251 245 243 241 243 244
309 309 311 312 311 310 307 306 304 303 302 303 303 299 294 291 290 288 286 285 284 282 280 279 279 276 276 278 276 275 273 270 266 262 259 255 253 248 244 242 240 238 240
314 313 313 312 311 310 307 305 303 302 304 305 302 299 297 296 293 291 288 285 283 282 282 281 281 280 278 278 276 272 271 269 268 263 259 254 252 249 243 241 240 237 236
315 315 313 312 313 311 308 306 303 304 307 307 304 302 301 298 296 292 290 287 286 286 284 283 279 277 276 278 277 276 271 266 262 258 256 257 251 248 243 239 238 237 235
316 316 315 313 311 311 310 307 307 308 309 306 305 305 300 297 294 292 293 294 292 291 288 284 281 278 273 274 272 272 271 270 263 257 249 253 250 246 243 239 237 235 233
319 317 316 314 313 313 312 310 309 309 307 306 307 304 297 294 296 298 297 298 299 300 296 287 276 273 273 274 269 269 270 270 268 261 252 253 253 247 241 238 238 236 233